• In Austria
  • List of Countries
  • For 7 days
  • Water Temperature
  • Satellite Maps
  • Weather Map
  • News
  • Weather Widgets
  • user-avatar
    Login

    Hourly Weather Ischgl

    Today, 25 February, Sunday

    Time Temperature Precipitation Wind Pressure Humidity
    00:00 -11°C° 0 mm 1 mps 566 mmHg 91%
    01:00 -12°C° 0 mm 1 mps 565 mmHg 90%
    02:00 -13°C° 0 mm 1 mps 565 mmHg 90%
    03:00 -13°C° 0 mm 1 mps 565 mmHg 89%
    04:00 -14°C° 0 mm 1 mps 565 mmHg 89%
    05:00 -14°C° 0 mm 1 mps 565 mmHg 88%
    06:00 -14°C° 0 mm 1 mps 564 mmHg 88%
    07:00 -17°C° 0 mm 2 mps 564 mmHg 95%
    08:00 -16°C° 0.1 mm 2 mps 565 mmHg 91%
    09:00 -15°C° 0.1 mm 2 mps 565 mmHg 87%
    10:00 -14°C° 0.1 mm 2 mps 566 mmHg 83%
    11:00 -14°C° 0.1 mm 2 mps 566 mmHg 81%
    12:00 -15°C° 0.1 mm 3 mps 566 mmHg 79%
    13:00 -15°C° 0 mm 3 mps 566 mmHg 76%
    14:00 -15°C° 0 mm 3 mps 566 mmHg 77%
    15:00 -16°C° 0 mm 3 mps 565 mmHg 79%
    16:00 -16°C° 0 mm 3 mps 565 mmHg 81%
    17:00 -19°C° 0 mm 3 mps 564 mmHg 85%
    18:00 -20°C° 0 mm 2 mps 563 mmHg 89%
    19:00 -23°C° 0 mm 2 mps 563 mmHg 93%
    20:00 -24°C° 0 mm 2 mps 562 mmHg 91%
    21:00 -22°C° 0 mm 1 mps 561 mmHg 90%
    22:00 -23°C° 0 mm 1 mps 561 mmHg 89%
    23:00 -24°C° 0 mm 1 mps 561 mmHg 86%

    Tomorrow, 26 February, Monday

    Time Temperature Precipitation Wind Pressure Humidity
    00:00 -24°C° 0 mm 1 mps 560 mmHg 83%
    01:00 -25°C° 0 mm 1 mps 560 mmHg 81%
    02:00 -25°C° 0 mm 1 mps 559 mmHg 80%
    03:00 -27°C° 0 mm 1 mps 559 mmHg 80%
    04:00 -27°C° 0 mm 1 mps 559 mmHg 80%
    05:00 -29°C° 0 mm 2 mps 559 mmHg 80%
    06:00 -30°C° 0 mm 2 mps 558 mmHg 81%
    07:00 -30°C° 0 mm 2 mps 558 mmHg 81%
    08:00 -28°C° 0 mm 2 mps 559 mmHg 79%
    09:00 -26°C° 0 mm 2 mps 560 mmHg 76%
    10:00 -24°C° 0 mm 2 mps 561 mmHg 73%
    11:00 -24°C° 0 mm 3 mps 561 mmHg 72%
    12:00 -23°C° 0 mm 3 mps 561 mmHg 71%
    13:00 -22°C° 0 mm 3 mps 562 mmHg 69%
    14:00 -23°C° 0 mm 3 mps 561 mmHg 72%
    15:00 -23°C° 0 mm 3 mps 561 mmHg 75%
    16:00 -23°C° 0 mm 3 mps 561 mmHg 78%
    17:00 -25°C° 0 mm 3 mps 560 mmHg 82%
    18:00 -26°C° 0 mm 2 mps 559 mmHg 86%
    19:00 -27°C° 0 mm 2 mps 559 mmHg 91%
    20:00 -28°C° 0 mm 2 mps 558 mmHg 91%
    21:00 -29°C° 0 mm 2 mps 558 mmHg 91%
    22:00 -28°C° 0 mm 1 mps 557 mmHg 91%
    23:00 -28°C° 0 mm 1 mps 557 mmHg 89%

    Day after tomorrow, 27 February, Tuesday

    Time Temperature Precipitation Wind Pressure Humidity
    00:00 -29°C° 0 mm 1 mps 557 mmHg 87%
    01:00 -29°C° 0 mm 1 mps 556 mmHg 85%
    02:00 -29°C° 0 mm 1 mps 556 mmHg 84%
    03:00 -29°C° 0 mm 1 mps 556 mmHg 83%
    04:00 -29°C° 0 mm 1 mps 556 mmHg 82%
    05:00 -29°C° 0 mm 1 mps 556 mmHg 81%
    06:00 -29°C° 0 mm 1 mps 555 mmHg 81%
    07:00 -30°C° 0 mm 1 mps 555 mmHg 81%
    08:00 -27°C° 0 mm 1 mps 557 mmHg 77%
    09:00 -24°C° 0 mm 1 mps 558 mmHg 73%
    10:00 -21°C° 0 mm 1 mps 559 mmHg 69%
    11:00 -20°C° 0 mm 1 mps 559 mmHg 68%
    12:00 -19°C° 0 mm 1 mps 560 mmHg 67%
    13:00 -21°C° 0 mm 2 mps 560 mmHg 65%
    14:00 -20°C° 0 mm 2 mps 560 mmHg 69%
    15:00 -20°C° 0 mm 2 mps 560 mmHg 73%
    16:00 -20°C° 0 mm 2 mps 560 mmHg 77%
    17:00 -20°C° 0 mm 1 mps 560 mmHg 83%
    18:00 -21°C° 0 mm 1 mps 559 mmHg 88%
    19:00 -23°C° 0 mm 1 mps 559 mmHg 94%
    20:00 -24°C° 0 mm 1 mps 558 mmHg 93%
    21:00 -24°C° 0 mm 1 mps 558 mmHg 92%
    22:00 -25°C° 0 mm 1 mps 558 mmHg 91%
    23:00 -25°C° 0 mm 1 mps 558 mmHg 89%

    28 February, Wednesday

    Time Temperature Precipitation Wind Pressure Humidity
    00:00 -25°C° 0 mm 1 mps 558 mmHg 87%
    01:00 -28°C° 0 mm 2 mps 558 mmHg 84%
    02:00 -28°C° 0 mm 2 mps 558 mmHg 83%
    03:00 -28°C° 0 mm 2 mps 558 mmHg 83%
    04:00 -29°C° 0 mm 2 mps 558 mmHg 82%
    05:00 -29°C° 0 mm 2 mps 559 mmHg 81%
    06:00 -29°C° 0 mm 2 mps 559 mmHg 81%
    07:00 -27°C° 0 mm 1 mps 559 mmHg 80%
    08:00 -23°C° 0 mm 1 mps 560 mmHg 75%
    09:00 -20°C° 0 mm 1 mps 562 mmHg 70%
    10:00 -17°C° 0 mm 1 mps 563 mmHg 65%
    11:00 -17°C° 0 mm 2 mps 564 mmHg 63%
    12:00 -16°C° 0 mm 2 mps 565 mmHg 62%
    13:00 -14°C° 0 mm 2 mps 565 mmHg 60%
    14:00 -14°C° 0 mm 2 mps 565 mmHg 62%
    15:00 -14°C° 0 mm 2 mps 565 mmHg 65%
    16:00 -14°C° 0 mm 2 mps 565 mmHg 67%
    17:00 -16°C° 0 mm 2 mps 564 mmHg 73%
    18:00 -17°C° 0 mm 2 mps 564 mmHg 78%
    19:00 -18°C° 0 mm 2 mps 564 mmHg 84%
    20:00 -21°C° 0 mm 3 mps 563 mmHg 83%
    21:00 -22°C° 0 mm 3 mps 563 mmHg 83%
    22:00 -22°C° 0 mm 3 mps 563 mmHg 83%
    23:00 -22°C° 0 mm 3 mps 563 mmHg 82%

    1 March, Thursday

    Time Temperature Precipitation Wind Pressure Humidity
    00:00 -22°C° 0 mm 3 mps 563 mmHg 81%
    01:00 -22°C° 0 mm 3 mps 563 mmHg 80%
    02:00 -21°C° 0 mm 3 mps 563 mmHg 79%
    03:00 -21°C° 0 mm 3 mps 563 mmHg 78%
    04:00 -21°C° 0 mm 3 mps 562 mmHg 78%
    05:00 -19°C° 0 mm 3 mps 562 mmHg 78%
    06:00 -19°C° 0 mm 3 mps 562 mmHg 78%
    07:00 -18°C° 0 mm 3 mps 562 mmHg 79%
    08:00 -16°C° 0 mm 3 mps 563 mmHg 78%
    09:00 -14°C° 0 mm 3 mps 564 mmHg 77%
    10:00 -12°C° 0 mm 3 mps 564 mmHg 77%
    11:00 -10°C° 0.2 mm 3 mps 564 mmHg 78%
    12:00 -9°C° 0.2 mm 3 mps 564 mmHg 79%
    13:00 -8°C° 0.2 mm 3 mps 565 mmHg 80%
    14:00 -9°C° 0.2 mm 3 mps 564 mmHg 82%
    15:00 -9°C° 0.2 mm 3 mps 564 mmHg 84%
    16:00 -9°C° 0.2 mm 3 mps 564 mmHg 85%
    17:00 -9°C° 0.2 mm 3 mps 563 mmHg 86%
    18:00 -10°C° 0.2 mm 3 mps 563 mmHg 87%
    19:00 -12°C° 0.2 mm 3 mps 563 mmHg 88%
    20:00 -12°C° 0.1 mm 3 mps 563 mmHg 88%
    21:00 -12°C° 0.1 mm 3 mps 563 mmHg 87%
    22:00 -12°C° 0.1 mm 3 mps 563 mmHg 87%
    23:00 -12°C° 0.1 mm 3 mps 562 mmHg 86%

    2 March, Friday

    Time Temperature Precipitation Wind Pressure Humidity
    00:00 -12°C° 0.1 mm 3 mps 562 mmHg 86%
    01:00 -12°C° 0.1 mm 2 mps 562 mmHg 85%
    02:00 -13°C° 0 mm 3 mps 561 mmHg 85%
    03:00 -13°C° 0 mm 3 mps 561 mmHg 84%
    04:00 -13°C° 0 mm 3 mps 561 mmHg 83%
    05:00 -12°C° 0 mm 2 mps 561 mmHg 83%
    06:00 -12°C° 0 mm 2 mps 561 mmHg 83%
    07:00 -12°C° 0 mm 2 mps 561 mmHg 83%
    08:00 -8°C° 0 mm 2 mps 562 mmHg 82%
    09:00 -6°C° 0 mm 2 mps 563 mmHg 82%
    10:00 -4°C° 0 mm 2 mps 564 mmHg 81%
    11:00 -3°C° 0 mm 2 mps 564 mmHg 83%
    12:00 -2°C° 0 mm 2 mps 564 mmHg 85%
    13:00 -2°C° 0 mm 2 mps 564 mmHg 86%
    14:00 -2°C° 0 mm 2 mps 563 mmHg 87%
    15:00 -2°C° 0 mm 2 mps 563 mmHg 88%
    16:00 -2°C° 0 mm 2 mps 563 mmHg 89%
    17:00 -3°C° 0.1 mm 2 mps 563 mmHg 89%
    18:00 -5°C° 0.1 mm 2 mps 562 mmHg 90%
    19:00 -6°C° 0.1 mm 2 mps 562 mmHg 90%
    20:00 -6°C° 0.1 mm 2 mps 562 mmHg 89%
    21:00 -6°C° 0.1 mm 2 mps 562 mmHg 89%
    22:00 -6°C° 0.1 mm 2 mps 562 mmHg 88%
    23:00 -6°C° 0.1 mm 2 mps 562 mmHg 88%
    Show more